TimeEDT,TemperatureF,Dew PointF,Humidity,Sea Level PressureIn,VisibilityMPH,Wind Direction,Wind SpeedMPH,Gust SpeedMPH,PrecipitationIn,Events,Conditions,WindDirDegrees,DateUTC
12:54 AM,48.9,46.0,90,30.23,10.0,Calm,Calm,-,N/A,,Clear,0,2013-06-21 04:54:00
1:54 AM,48.9,44.1,83,30.23,10.0,Calm,Calm,-,N/A,,Clear,0,2013-06-21 05:54:00
2:54 AM,48.9,44.1,83,30.23,10.0,Calm,Calm,-,N/A,,Clear,0,2013-06-21 06:54:00
3:54 AM,46.9,44.1,90,30.23,10.0,Calm,Calm,-,N/A,,Clear,0,2013-06-21 07:54:00
4:54 AM,46.9,44.1,90,30.25,10.0,Calm,Calm,-,N/A,,Clear,0,2013-06-21 08:54:00
5:54 AM,48.0,44.1,86,30.25,10.0,ESE,4.6,-,N/A,,Clear,110,2013-06-21 09:54:00
6:54 AM,53.1,48.9,86,30.27,10.0,Calm,Calm,-,N/A,,Clear,0,2013-06-21 10:54:00
7:54 AM,60.1,51.1,72,30.27,9.0,Calm,Calm,-,N/A,,Clear,0,2013-06-21 11:54:00
8:54 AM,64.9,52.0,63,30.27,10.0,Calm,Calm,-,N/A,,Clear,0,2013-06-21 12:54:00
9:54 AM,70.0,50.0,49,30.28,10.0,Calm,Calm,-,N/A,,Clear,0,2013-06-21 13:54:00
10:54 AM,73.0,51.1,46,30.28,10.0,SE,3.5,-,N/A,,Clear,140,2013-06-21 14:54:00
11:54 AM,75.0,48.0,38,30.27,10.0,Calm,Calm,-,N/A,,Clear,0,2013-06-21 15:54:00
12:54 PM,77.0,50.0,39,30.26,10.0,ESE,4.6,-,N/A,,Clear,110,2013-06-21 16:54:00
1:54 PM,78.1,50.0,37,30.25,10.0,Calm,Calm,-,N/A,,Clear,0,2013-06-21 17:54:00
2:54 PM,81.0,48.9,33,30.24,10.0,West,3.5,-,N/A,,Clear,260,2013-06-21 18:54:00
3:54 PM,81.0,55.9,42,30.23,10.0,North,5.8,-,N/A,,Clear,10,2013-06-21 19:54:00
4:54 PM,81.0,55.0,41,30.22,10.0,NNW,5.8,-,N/A,,Clear,340,2013-06-21 20:54:00
5:54 PM,79.0,55.0,44,30.21,10.0,NNE,4.6,-,N/A,,Clear,30,2013-06-21 21:54:00
6:54 PM,75.9,55.0,48,30.21,10.0,NNE,4.6,-,N/A,,Clear,30,2013-06-21 22:54:00
7:54 PM,73.9,53.1,48,30.20,10.0,NE,4.6,-,N/A,,Clear,40,2013-06-21 23:54:00
8:54 PM,66.0,52.0,60,30.18,10.0,Calm,Calm,-,N/A,,Clear,0,2013-06-22 00:54:00
9:54 PM,62.1,52.0,70,30.19,10.0,Calm,Calm,-,N/A,,Clear,0,2013-06-22 01:54:00
10:54 PM,60.1,52.0,75,30.18,10.0,SE,3.5,-,N/A,,Clear,140,2013-06-22 02:54:00
11:54 PM,59.0,53.1,81,30.17,10.0,ESE,3.5,-,N/A,,Clear,110,2013-06-22 03:54:00